MDT,Max TemperatureF,Mean TemperatureF,Min TemperatureF,Max Dew PointF,MeanDew PointF,Min DewpointF,Max Humidity, Mean Humidity, Min Humidity, Max Sea Level PressureIn, Mean Sea Level PressureIn, Min Sea Level PressureIn, Max VisibilityMiles, Mean VisibilityMiles, Min VisibilityMiles, Max Wind SpeedMPH, Mean Wind SpeedMPH, Max Gust SpeedMPH,PrecipitationIn, CloudCover, Events, WindDirDegrees
2012-7-1,88,77,66,54,50,43,63,42,21,29.85,29.78,29.70,10,10,10,22,11,26,0.00,0,,307
2012-7-2,97,78,58,50,45,39,64,39,14,29.88,29.75,29.54,10,10,10,12,4,15,0.00,0,,15
2012-7-3,84,76,67,51,37,22,55,33,10,29.88,29.80,29.55,10,10,10,21,11,28,0.00,0,,326
2012-7-4,90,71,52,41,37,30,59,36,12,29.93,29.82,29.69,10,10,10,20,7,22,0.00,0,,300
2012-7-5,93,78,62,51,42,33,52,33,13,29.88,29.80,29.71,10,10,10,18,6,23,0.00,0,,229
2012-7-6,98,82,65,52,48,42,52,34,16,30.07,29.92,29.85,10,10,8,28,7,37,T,0,,138
2012-7-7,100,84,68,47,45,43,45,30,14,30.06,29.95,29.87,10,10,7,26,7,36,0.00,0,Thunderstorm,112
2012-7-8,101,86,70,53,46,37,41,29,16,30.04,29.95,29.87,10,10,5,33,10,48,0.01,0,Rain-Thunderstorm,114
2012-7-9,108,90,71,54,45,34,38,23,8,29.94,29.86,29.77,10,10,7,31,8,41,0.03,0,Rain,113
2012-7-10,100,86,72,50,46,35,41,26,11,29.93,29.84,29.76,10,10,10,15,5,17,0.00,0,,299
2012-7-11,100,83,66,54,50,41,59,37,14,29.97,29.83,29.75,10,10,4,24,4,33,0.00,0,Thunderstorm,217
2012-7-12,108,91,73,49,43,31,38,23,7,29.94,29.76,29.61,10,7,2,16,7,21,0.00,0,,116
2012-7-13,92,82,72,54,52,44,53,39,24,29.86,29.79,29.65,10,10,10,28,9,37,0.00,0,,134
2012-7-14,97,83,69,61,55,45,61,39,17,29.92,29.79,29.69,10,10,7,29,11,36,0.03,2,Rain-Thunderstorm,140
2012-7-15,90,77,63,65,52,41,84,52,19,29.92,29.78,29.66,10,10,10,14,7,18,0.00,0,,353
2012-7-16,92,80,68,53,46,42,57,38,19,29.82,29.70,29.63,10,10,6,36,10,45,0.00,0,,110
2012-7-17,99,82,64,54,44,29,60,34,8,29.78,29.69,29.60,10,10,10,18,6,26,0.00,0,,146
2012-7-18,97,81,64,50,43,37,56,35,13,29.83,29.77,29.65,10,10,10,12,6,16,0.00,0,,72
2012-7-19,104,87,69,44,34,20,31,18,5,29.97,29.83,29.75,10,10,10,22,9,26,T,0,,155
2012-7-20,98,84,70,43,40,35,36,25,14,30.04,29.89,29.85,10,10,10,17,7,24,0.00,0,,322
2012-7-21,96,79,61,52,45,34,65,39,12,30.07,29.97,29.87,10,10,10,15,7,20,0.00,0,,304
2012-7-22,102,84,65,47,42,35,48,29,10,29.91,29.82,29.70,10,10,10,22,7,30,T,0,,158
2012-7-23,88,77,65,48,40,25,48,29,10,30.00,29.92,29.78,10,10,10,16,9,24,T,0,,301
2012-7-24,93,77,60,44,41,38,46,31,16,29.96,29.89,29.80,10,10,9,13,4,15,0.00,0,,270
2012-7-25,99,83,66,48,41,37,39,26,13,29.94,29.83,29.75,10,10,10,14,5,16,0.00,0,,13
2012-7-26,101,85,69,45,40,31,35,22,9,29.85,29.76,29.65,10,10,10,20,8,24,0.00,0,,347
2012-7-27,99,83,66,50,46,40,52,33,13,29.87,29.76,29.69,10,10,10,14,6,22,0.00,0,,294
2012-7-28,97,81,64,48,44,38,41,29,17,29.94,29.85,29.76,10,10,8,18,6,23,0.00,0,,307
2012-7-29,99,81,63,50,42,33,52,31,10,30.05,29.88,29.78,10,10,10,10,4,20,0.00,0,,295
2012-7-30,97,81,65,46,42,35,48,30,12,29.93,29.85,29.79,10,10,10,16,7,23,0.00,0,,284
2012-7-31,98,80,61,46,42,34,48,30,11,30.02,29.90,29.82,10,10,10,16,5,21,0.00,0,,294